FW4092 Weather Reports


Display with metric or nautical units.
time (UTC)temp
F
wind
direction
speed
MPH
gust
MPH
rain 1hr
in
rain 24hr
in
rain mn
in
humidity
%
barometer
mb
20260503231938 83 334 5.0 12.0 0.00 0.01 0.00 22 1007.8
20260503231432 83 65 5.0 12.0 0.00 0.01 0.00 23 1007.9
20260503231213 83 301 5.0 12.0 0.00 0.01 0.00 23 1008.0
20260503230706 82 22 6.0 14.0 0.00 0.01 0.00 24 1008.1
20260503225914 82 67 6.0 14.0 0.00 0.01 0.00 25 1008.2
20260503225408 83 319 5.0 13.0 0.00 0.01 0.00 24 1008.1
20260503224902 82 319 5.0 13.0 0.00 0.01 0.00 24 1008.3
20260503224356 82 33 6.0 13.0 0.00 0.01 0.00 25 1008.4
20260503224121 82 355 6.0 14.0 0.00 0.01 0.00 25 1008.4
20260503223616 82 49 7.0 15.0 0.00 0.01 0.00 26 1008.5
20260503223114 82 355 7.0 15.0 0.00 0.01 0.00 25 1008.4
20260503222405 82 355 7.0 15.0 0.00 0.01 0.00 27 1008.7
20260503221858 82 321 7.0 15.0 0.00 0.01 0.00 26 1008.7
20260503221359 82 332 6.0 12.0 0.00 0.01 0.00 27 1008.7
20260503220859 82 330 6.0 16.0 0.00 0.01 0.00 28 1008.7
20260503220613 82 315 6.0 16.0 0.00 0.01 0.00 27 1009.0
20260503215858 82 355 5.0 14.0 0.00 0.01 0.00 28 1008.9
20260503215357 82 5 5.0 12.0 0.00 0.01 0.00 28 1009.0
20260503215111 82 73 4.0 10.0 0.00 0.01 0.00 27 1009.1
20260503214356 82 65 5.0 12.0 0.00 0.01 0.00 30 1009.1
20260503214111 81 0 6.0 12.0 0.00 0.01 0.00 29 1009.2
20260503213609 81 355 6.0 12.0 0.00 0.01 0.00 30 1009.2
20260503213355 81 355 6.0 12.0 0.00 0.01 0.00 30 1009.2
20260503212902 81 44 6.0 11.0 0.00 0.01 0.00 29 1009.3
20260503212346 81 281 6.0 13.0 0.00 0.01 0.00 30 1009.4
20260503211846 81 46 5.0 13.0 0.00 0.01 0.00 31 1009.4
20260503211346 81 327 4.0 12.0 0.00 0.01 0.00 31 1009.5
20260503210847 80 50 4.0 12.0 0.00 0.01 0.00 32 1009.6
20260503210346 80 338 5.0 12.0 0.00 0.01 0.00 33 1009.6
20260503205846 79 331 5.0 12.0 0.00 0.01 0.00 33 1009.7
20260503205346 79 23 4.0 11.0 0.00 0.01 0.00 33 1009.7
20260503204846 79 355 5.0 12.0 0.00 0.01 0.00 32 1009.8
20260503204344 79 315 5.0 12.0 0.00 0.01 0.00 32 1009.8
20260503203843 79 23 4.0 9.0 0.00 0.01 0.00 34 1009.8
20260503203342 79 355 4.0 10.0 0.00 0.01 0.00 34 1009.9
20260503202841 79 334 4.0 10.0 0.00 0.01 0.00 33 1009.9
20260503202340 79 348 3.0 10.0 0.00 0.01 0.00 34 1010.2
20260503201840 79 355 3.0 8.0 0.00 0.01 0.00 35 1010.2
20260503201340 78 75 3.0 8.0 0.00 0.01 0.00 34 1010.3
20260503200841 78 333 3.0 8.0 0.00 0.01 0.00 34 1010.4
20260503200601 77 26 4.0 10.0 0.00 0.01 0.00 35 1010.5
20260503195912 78 314 4.0 8.0 0.00 0.01 0.00 35 1010.6
20260503195907 77 331 4.0 10.0 0.00 0.01 0.00 35 1010.5
20260503194839 78 0 4.0 8.0 0.00 0.01 0.00 34 1010.7
20260503194340 77 80 3.0 8.0 0.00 0.01 0.00 36 1010.8
20260503193837 77 34 2.0 8.0 0.00 0.01 0.00 37 1010.7
20260503193337 76 85 3.0 6.0 0.00 0.01 0.00 36 1010.9
20260503193112 75 67 3.0 8.0 0.00 0.01 0.00 38 1010.9
20260503192348 75 314 2.0 7.0 0.00 0.01 0.00 37 1011.1
20260503192344 75 321 3.0 8.0 0.00 0.01 0.00 38 1011.0
20260503191317 74 0 2.0 6.0 0.00 0.01 0.00 39 1011.1
20260503190811 74 350 3.0 8.0 0.00 0.01 0.00 37 1011.3
20260503190306 74 331 3.0 8.0 0.00 0.01 0.00 40 1011.3
20260503185759 74 348 3.0 9.0 0.00 0.01 0.00 39 1011.5
20260503185519 73 350 3.0 9.0 0.00 0.01 0.00 40 1011.5
20260503185020 73 349 3.0 8.0 0.00 0.01 0.00 43 1011.6
20260503184241 73 5 2.0 8.0 0.00 0.01 0.00 41 1011.6
20260503183735 72 43 3.0 6.0 0.00 0.01 0.00 42 1011.7
20260503183232 72 5 3.0 8.0 0.00 0.01 0.00 42 1011.8
20260503182723 72 294 3.0 8.0 0.00 0.01 0.00 42 1011.9
20260503182217 72 23 2.0 6.0 0.00 0.01 0.00 43 1012.0
20260503181711 71 64 2.0 5.0 0.00 0.01 0.00 43 1012.0
20260503181205 71 76 2.0 6.0 0.00 0.01 0.00 43 1012.0
20260503180659 71 355 3.0 6.0 0.00 0.01 0.00 43 1012.2
20260503180154 70 330 3.0 8.0 0.00 0.01 0.00 43 1012.1
20260503175647 70 50 2.0 8.0 0.00 0.01 0.00 43 1012.1
20260503175142 70 53 1.0 5.0 0.00 0.01 0.00 45 1012.3
20260503174640 69 340 2.0 6.0 0.00 0.01 0.00 46 1012.2
20260503174129 69 10 2.0 6.0 0.00 0.01 0.00 45 1012.2
20260503173623 69 350 2.0 8.0 0.00 0.01 0.00 44 1012.2
20260503173118 68 344 3.0 8.0 0.00 0.01 0.00 46 1012.2
20260503172846 68 15 3.0 7.0 0.00 0.01 0.00 47 1012.2
20260503172340 68 27 2.0 7.0 0.00 0.01 0.00 47 1012.2
20260503171559 67 355 2.0 7.0 0.00 0.01 0.00 46 1012.2
20260503171327 67 345 2.0 6.0 0.00 0.01 0.00 49 1012.2
20260503170825 66 74 2.0 4.0 0.00 0.01 0.00 49 1012.2
20260503150930 54 142 2.0 4.0 0.00 0.01 0.00 69 1012.8
20260503150427 53 136 1.0 3.0 0.00 0.01 0.00 70 1012.8
20260503130745 45 173 0.0 0.0 0.00 0.01 0.00 84 1012.4
20260503130238 45 173 0.0 0.0 0.00 0.01 0.00 85 1012.3
20260503120127 46 173 0.0 0.0 0.00 0.01 0.00 83 1012.2
20260503110112 48 173 0.0 2.0 0.00 0.01 0.00 75 1012.3
20260503090107 53 181 2.0 6.0 0.00 0.01 0.00 70 1012.3
20260503081526 53 139 2.0 4.0 0.00 0.01 0.00 70 1012.1
20260503081019 53 124 2.0 6.0 0.00 0.01 0.00 69 1012.0
20260503080513 53 121 2.0 6.0 0.00 0.01 0.00 69 1012.1
20260503072931 54 146 0.0 3.0 0.00 0.01 0.00 67 1012.4
20260503072718 55 146 0.0 1.0 0.00 0.01 0.00 66 1012.4
20260503071917 55 146 1.0 4.0 0.00 0.01 0.00 66 1012.4
20260503071411 55 146 2.0 4.0 0.00 0.01 0.00 66 1012.4
20260503070905 55 163 2.0 4.0 0.00 0.01 0.00 66 1012.6
20260503070400 55 167 1.0 4.0 0.00 0.01 0.00 65 1012.4
20260503060307 58 186 3.0 5.0 0.00 0.01 0.01 59 1012.3
20260503054807 59 139 1.0 4.0 0.00 0.01 0.01 59 1012.2
20260503054311 59 170 1.0 4.0 0.00 0.01 0.01 59 1012.2
20260503053812 59 171 1.0 5.0 0.00 0.01 0.01 59 1012.2
20260503053307 60 171 2.0 5.0 0.00 0.01 0.01 58 1012.0
20260503052808 60 231 2.0 5.0 0.00 0.01 0.01 56 1011.9
20260503052308 60 292 2.0 5.0 0.00 0.01 0.01 56 1011.9
20260503051807 60 297 2.0 5.0 0.00 0.01 0.01 55 1011.8
20260503051308 60 315 2.0 6.0 0.00 0.01 0.01 56 1011.8
20260503050808 60 287 3.0 8.0 0.00 0.01 0.01 56 1011.9
20260503050311 60 269 3.0 8.0 0.00 0.01 0.01 56 1011.9
20260503050058 60 273 3.0 8.0 0.00 0.01 0.01 56 1011.8
20260503045305 60 298 4.0 8.0 0.00 0.01 0.01 57 1011.8
20260503045043 60 257 3.0 7.0 0.00 0.01 0.01 56 1011.8
20260503044259 60 287 3.0 6.0 0.00 0.01 0.01 57 1011.8
20260503044027 60 277 3.0 7.0 0.00 0.01 0.01 57 1011.7
20260503043258 60 271 3.0 8.0 0.00 0.01 0.01 58 1011.6
20260503042757 60 277 4.0 8.0 0.00 0.01 0.01 59 1011.8
20260503042305 60 296 4.0 8.0 0.00 0.01 0.01 59 1011.6
20260503042300 60 271 4.0 8.0 0.00 0.01 0.01 59 1011.8
20260503041257 60 289 3.0 8.0 0.00 0.01 0.01 60 1011.6
20260503041019 60 323 3.0 5.0 0.00 0.01 0.01 61 1011.5
20260503040537 59 284 3.0 6.0 0.00 0.01 0.01 61 1011.5
20260503035755 60 296 2.0 6.0 0.00 0.01 0.01 62 1011.5
20260503035254 60 293 2.0 6.0 0.00 0.01 0.01 62 1011.5
20260503034749 60 279 3.0 7.0 0.00 0.01 0.01 62 1011.5
20260503034249 60 296 3.0 7.0 0.00 0.01 0.01 62 1011.5
20260503034014 60 288 2.0 4.0 0.00 0.01 0.01 61 1011.6
20260503033757 60 288 2.0 4.0 0.00 0.01 0.01 61 1011.6
20260503033249 60 293 2.0 4.0 0.00 0.01 0.01 61 1011.4
20260503032749 60 294 3.0 4.0 0.00 0.01 0.01 61 1011.4
20260503032248 60 290 3.0 5.0 0.00 0.01 0.01 61 1011.3
20260503031749 61 302 3.0 6.0 0.00 0.01 0.01 61 1011.3
20260503031249 61 303 3.0 6.0 0.00 0.01 0.01 61 1011.1
20260503030749 61 301 3.0 7.0 0.00 0.01 0.01 60 1011.1
20260503030249 61 287 2.0 7.0 0.00 0.01 0.01 61 1011.0
20260503025749 61 298 2.0 4.0 0.00 0.01 0.01 60 1011.1
20260503025259 62 305 1.0 3.0 0.00 0.01 0.01 60 1011.1
20260503025025 62 304 2.0 4.0 0.00 0.01 0.01 59 1011.1
20260503024247 62 309 2.0 6.0 0.00 0.01 0.01 59 1011.1
20260503023746 62 324 3.0 6.0 0.00 0.01 0.01 58 1010.8
20260503023247 62 332 3.0 9.0 0.00 0.01 0.01 58 1010.8
20260503022745 63 317 4.0 9.0 0.00 0.01 0.01 57 1010.8
20260503022246 63 314 4.0 11.0 0.00 0.01 0.01 58 1010.7
20260503021741 63 332 3.0 11.0 0.00 0.01 0.01 57 1010.7
20260503021242 63 342 3.0 10.0 0.00 0.01 0.01 58 1010.7
20260503020741 63 15 4.0 10.0 0.00 0.01 0.01 58 1010.7
20260503020523 63 315 3.0 9.0 0.00 0.01 0.01 57 1010.5
20260503015741 63 355 3.0 9.0 0.00 0.01 0.01 59 1010.5
20260503015301 63 338 4.0 11.0 0.00 0.01 0.01 59 1010.6
20260503014749 62 15 5.0 15.0 0.00 0.01 0.01 58 1010.4
20260503014248 63 342 5.0 15.0 0.01 0.01 0.01 59 1010.5
20260503013741 63 349 7.0 14.0 0.01 0.01 0.01 59 1010.4
20260503013237 63 355 7.0 14.0 0.01 0.01 0.01 58 1010.3
20260503012731 63 331 7.0 13.0 0.01 0.01 0.01 58 1010.2
20260503012226 63 305 8.0 16.0 0.01 0.01 0.01 58 1010.3
20260503011959 63 344 7.0 16.0 0.01 0.01 0.01 57 1010.3
20260503011215 63 355 6.0 13.0 0.01 0.01 0.01 60 1010.3
20260503010708 63 348 7.0 13.0 0.01 0.01 0.01 60 1010.5
20260503010203 63 355 6.0 12.0 0.01 0.01 0.01 60 1010.5
20260503005659 63 348 5.0 12.0 0.01 0.01 0.01 61 1010.3
20260503005148 63 355 5.0 11.0 0.01 0.01 0.01 61 1010.2
20260503004641 64 28 3.0 10.0 0.01 0.01 0.01 61 1010.3
20260503004135 64 351 4.0 10.0 0.00 0.00 0.00 55 1011.0
20260503003632 65 26 4.0 12.0 0.00 0.00 0.00 53 1011.1
20260503003123 65 291 6.0 17.0 0.00 0.00 0.00 47 1011.3
20260503002614 66 277 8.0 17.0 0.00 0.00 0.00 52 1011.9
20260503002111 67 215 7.0 16.0 0.00 0.00 0.00 47 1011.1
20260503001610 67 209 7.0 16.0 0.00 0.00 0.00 44 1010.8
20260503001110 69 257 6.0 12.0 0.00 0.00 0.00 41 1010.7
20260503000610 70 205 6.0 14.0 0.00 0.00 0.00 38 1010.5
20260503000110 73 216 4.0 14.0 0.00 0.00 0.00 34 1010.6
20260502235610 74 229 3.0 8.0 0.00 0.00 0.00 30 1010.4
20260502235109 74 321 4.0 10.0 0.00 0.00 0.00 31 1009.8
20260502234607 74 319 5.0 10.0 0.00 0.00 0.00 30 1009.6
20260502234106 74 329 5.0 13.0 0.00 0.00 0.00 30 1009.4
20260502233607 74 336 6.0 13.0 0.00 0.00 0.00 30 1009.5
20260502233113 74 30 6.0 14.0 0.00 0.00 0.00 29 1009.5
20260502232605 75 9 6.0 14.0 0.00 0.00 0.00 29 1009.5